Regional Weather Roundup
Issued by NWS State College, PA

Home | Current Version | Previous Version | Text Only | Print | Product List | Glossary On
Versions: 1 2 3 4 5 6 7 8 9 10 11 12 13 14 15 16 17 18 19 20 21 22 23 24 25 26 27 28 29 30 31 32 33 34 35 36 37 38 39 40 41 42 43 44 45 46 47 48 49 50
000
ASUS41 KCTP 261910
RWRCTP

REGIONAL WEATHER ROUNDUP
NATIONAL WEATHER SERVICE STATE COLLEGE PA
300 PM EDT MON JUN 26 2017

Note: "fair" indicates few or no clouds below 12,000 feet with no
significant weather and/or obstructions to visibility.

* = STATION THAT DOES NOT REPORT PRECIPITATION /E.G. RAIN...SNOW...ETC/
    THUNDER OR FOG.

PAZ002>004-007>009-013>016-020>023-029>032-262000-
WESTERN PENNSYLVANIA

CITY           SKY/WX    TMP DP  RH WIND       PRES   REMARKS
ERIE           MOSUNNY   68  53  58 W15G24    30.01S
MEADVILLE      CLOUDY    64  56  75 W8        30.03F
FRANKLIN*      CLOUDY    61  48  63 NW6       30.05R
NEW CASTLE     LGT RAIN  66  52  60 VRB6      30.04S
BEAVER COUNTY  PTSUNNY   73  52  46 W9G21     30.05S
BUTLER*        PTSUNNY   70  48  46 W10G18    30.04S
PITTSBURGH INT PTSUNNY   73  46  38 W13G23    30.04F
PITTSBURGH     MOSUNNY   73  45  36 W15G23    30.04F
INDIANA*       PTSUNNY   70  48  46 W14G20    30.07F
LATROBE        NOT AVBL
WASHINGTON CO* MOSUNNY   72  45  37 SW9G21    30.08S
$$

PAZ004>006-010>012-017>019-024>028-033>037-041-042-045-046-049>053-262000-
CENTRAL PENNSYLVANIA

CITY           SKY/WX    TMP DP  RH WIND       PRES   REMARKS
BRADFORD       CLOUDY    65  49  56 NW7       30.01F
DUBOIS         CLOUDY    67  45  45 W20G25    30.03S
CLEARFIELD     MOSUNNY   71  44  37 W12G22    30.04F
JOHNSTOWN      PTSUNNY   66  47  50 W9        30.08S
ALTOONA        PTSUNNY   70  47  43 W10       30.06F
STATE COLLEGE  PTSUNNY   72  46  40 SW17G23   30.04S
WILLIAMSPORT   MOSUNNY   78  48  34 SW7G20    29.98F
SELINSGROVE    MOSUNNY   76  46  34 VRB7G18   30.02F
FT INDIANTOWN  SUNNY     76  45  32 W12       30.02F
CAPITAL CITY   PTSUNNY   79  45  29 SW10      30.03F
HARRISBURG     MOSUNNY   76  47  35 W7G18     30.02F
YORK           MOSUNNY   76  50  40 SW5       30.04F
$$

PAZ038>040-043-044-047-048-054-055-060>062-067>071-262000-
EASTERN PENNSYLVANIA

CITY           SKY/WX    TMP DP  RH WIND       PRES   REMARKS
SCRANTON       MOSUNNY   77  47  34 SW10G20   30.00F
MOUNT POCONO   MOSUNNY   70  43  37 W15G21    30.04S
ALLENTOWN      PTSUNNY   77  47  34 SW8       30.01
QUAKERTOWN*    MOCLDY    75  46  35 SW8       30.04S
READING        MOSUNNY   79  49  34 SW12      30.01F
LANCASTER      MOSUNNY   78  50  37 W14       30.03F
COATESVILLE    PTCLDY    75  46  35 W9        30.06S
POTTSTOWN      PTSUNNY   76  47  35 VRB6      30.05S
BLUE BELL      MOSUNNY   77  50  38 W8        30.04S
DOYLESTOWN     MOSUNNY   77  47  34 SW9       30.02S
WILLOW GROVE   NOT AVBL
NORTH PHILA    MOSUNNY   79  49  34 W13       30.03F
PHILADELPHIA   MOSUNNY   80  45  28 SW9       30.02F
$$




USA.gov is the U.S. government's official web portal to all federal, state and local government web resources and services.